Вернуться в каталог

STARLINK-35165

АктивенСвязьVLEO
NORAD 65750·PAYLOAD·🇺🇸 United States

Запущен Sep 25, 2025 с Cape Canaveral Space Force Station

Loading…

Ближайшие Пролёты (ближайшие 24 часа)

TLE

СвежийSource: CelesTrak SupGP

Эпоха: Sep 14, 2026, 23:05 UTC

1 65750C 25216S   26257.96229167 -.00065212  00000+0 -19264-2 0  2571
2 65750  53.1573 171.3067 0001320  85.9511  13.3707 15.34428442    18

Отслеживайте STARLINK-35165 в реальном времени с AllMySat

Download on the App Store